This is the latest recevied weather packets stored in our database for station/object KC5CAM-13. If no packets are shown the sender has not sent any weather packets the latest 1 day(s).
| Time | Temp. | Humidity | Pressure | Rain* | Wind** | Luminosity | Snow |
|---|---|---|---|---|---|---|---|
| 1778035856 | 17.78° C | 79% | 1009.7 hPa | 0 mm | - | 0 W/m² | - |
| 1778035553 | 17.78° C | 79% | 1009.7 hPa | 0 mm | - | 0 W/m² | - |
| 1778035250 | 17.78° C | 79% | 1009.8 hPa | 0 mm | - | 0 W/m² | - |
| 1778034341 | 18.33° C | 79% | 1009.3 hPa | 0 mm | - | 0 W/m² | - |
| 1778034038 | 18.33° C | 79% | 1009.2 hPa | 0 mm | - | 0 W/m² | - |
| 1778033433 | 18.89° C | 78% | 1008.6 hPa | 0 mm | - | 0 W/m² | - |
| 1778033130 | 18.89° C | 78% | 1008.6 hPa | 0 mm | - | 0 W/m² | - |
| 1778032525 | 19.44° C | 78% | 1008.4 hPa | 0 mm | - | 0 W/m² | - |
| 1778032221 | 19.44° C | 78% | 1008.4 hPa | 0 mm | - | 0 W/m² | - |
| 1778031919 | 19.44° C | 77% | 1008.3 hPa | 0 mm | - | 0 W/m² | - |
| 1778031615 | 20° C | 77% | 1008.2 hPa | 0 mm | - | 0 W/m² | - |
| 1778031313 | 20° C | 76% | 1007.9 hPa | 0 mm | - | 0 W/m² | - |
| 1778030100 | 20° C | 74% | 1007.7 hPa | 0 mm | - | 0 W/m² | - |
| 1778029796 | 20° C | 74% | 1007.8 hPa | 0 mm | - | 3 W/m² | - |
| 1778029496 | 20° C | 74% | 1007.2 hPa | 0 mm | - | 5 W/m² | - |
| 1778029191 | 20° C | 73% | 1006.8 hPa | 0 mm | - | 5 W/m² | - |
| 1778028889 | 20° C | 73% | 1007 hPa | 0 mm | - | 6 W/m² | - |
| 1778028584 | 20.56° C | 73% | 1007 hPa | 0 mm | - | 9 W/m² | - |
| 1778027978 | 20.56° C | 73% | 1006.9 hPa | 0 mm | - | 16 W/m² | - |
| 1778027675 | 21.11° C | 72% | 1006.5 hPa | 0 mm | - | 14 W/m² | - |
| 1778027371 | 21.11° C | 72% | 1006.9 hPa | 0 mm | - | 11 W/m² | - |
| 1778027067 | 21.67° C | 72% | 1006.5 hPa | 0 mm | - | 20 W/m² | - |
| 1778026763 | 21.67° C | 71% | 1006.4 hPa | 0 mm | - | 25 W/m² | - |
| 1778026460 | 21.67° C | 71% | 1006.4 hPa | 0 mm | - | 16 W/m² | - |
| 1778025855 | 22.22° C | 70% | 1006.8 hPa | 0 mm | - | 16 W/m² | - |
* Rain latest hour (hover to see other rain measurements)
** Current wind speed in m/s (hover to see current wind gust speed)